Terug naar catalogus

DELTA 1 DEB

ActiefSSO
NORAD 9040·DEBRIS·🇺🇸 United States

Gelanceerd Jan 22, 1975 vanaf Vandenberg Space Force Base

Loading…

Volgende Passages (komende 24 uur)

TLE

VersSource: Space-Track

Epoch: Sep 13, 2026, 17:37 UTC

1 09040U 75004DE  26256.73469173  .00000107  00000-0  38601-4 0  9990
2 09040  97.9277 319.3528 0047257  64.3388 296.2677 14.48892480626184

Volg DELTA 1 DEB in realtime met AllMySat

Download on the App Store